Weather History for Poplar Bluff, MO

Change the Weather History Date:

Tuesday, January 22, 2013

  Actual Average Record
Temperature  
Mean Temperature 24 °F -  
Max Temperature 27 °F 42 °F 68 °F (1944)
Min Temperature 21 °F 24 °F -13 °F (1930)
Degree Days  
Heating Degree Days 41    
Moisture  
Dew Point 8 °F    
Average Humidity 49    
Maximum Humidity 75    
Minimum Humidity 39    
Precipitation  
Precipitation 0.00 in - - ()
Sea Level Pressure  
Sea Level Pressure 30.42 in    
Wind  
Wind Speed 7 mph (East)    
Max Wind Speed 10 mph    
Max Gust Speed -    
Visibility 10 miles    
Events      
Averages and records for this station are not official NWS values.
T = Trace of Precipitation, MM = Missing Value Source: NWS Daily Summary

Daily Weather History Graph

Daily Weather History Graph

Search for Another Location

Airport:

Trip Planner

Search our weather history database for the weather conditions in past years. The results will help you decide how hot, cold, wet, or windy it might be!

Date:

Astronomy

Jan. 22, 2013 Rise Set
Actual Time 7:09 AM CST 5:16 PM CST
Civil Twilight 6:42 AM CST 5:44 PM CST
Nautical Twilight 6:10 AM CST 6:15 PM CST
Astronomical Twilight 5:39 AM CST 6:46 PM CST
Moon 1:40 PM CST (1/22) 3:30 AM CST (1/22)
Length of Visible Light 11h 02m
Length of Day
10h 06m
Waxing Gibbous, 83% of the Moon is Illuminated
Jan 22
Waxing Gibbous
Jan 26
Full
Feb 3
Last Quarter
Feb 10
New
Feb 17
First Quarter

Hourly Weather History & Observations

Time (CST) Temp. Windchill Dew Point Humidity Pressure Visibility Wind Dir Wind Speed Gust Speed Precip Events Conditions
12:53 AM 27.0 °F 17.3 °F 10.0 °F 49% 30.37 in 10.0 mi NE 10.4 mph - N/A   Overcast
1:53 AM 27.0 °F 18.0 °F 8.1 °F 45% 30.38 in 10.0 mi NNE 9.2 mph - N/A   Mostly Cloudy
2:53 AM 25.0 °F 16.3 °F 6.1 °F 45% 30.38 in 10.0 mi NNE 8.1 mph - N/A   Clear
3:53 AM 24.1 °F 14.4 °F 6.1 °F 46% 30.39 in 10.0 mi NNE 9.2 mph - N/A   Clear
4:53 AM 23.0 °F 13.9 °F 9.0 °F 55% 30.40 in 10.0 mi ENE 8.1 mph - N/A   Clear
5:53 AM 21.9 °F 13.4 °F 7.0 °F 53% 30.43 in 10.0 mi ENE 6.9 mph - N/A   Clear
6:53 AM 21.0 °F 14.6 °F 7.0 °F 55% 30.45 in 10.0 mi East 4.6 mph - N/A   Clear
7:53 AM 21.9 °F 15.7 °F 6.1 °F 51% 30.46 in 10.0 mi ENE 4.6 mph - N/A   Clear
8:53 AM 21.9 °F 15.7 °F 5.0 °F 48% 30.47 in 10.0 mi Variable 4.6 mph - N/A   Clear
9:53 AM 24.1 °F 17.0 °F 5.0 °F 44% 30.49 in 10.0 mi East 5.8 mph - N/A   Clear
10:53 AM 24.1 °F 16.0 °F 5.0 °F 44% 30.49 in 10.0 mi East 6.9 mph - N/A   Clear
11:53 AM 26.1 °F 21.9 °F 3.9 °F 39% 30.48 in 10.0 mi East 3.5 mph - N/A   Clear
12:53 PM 26.1 °F - 3.9 °F 39% 30.44 in 10.0 mi Calm Calm - N/A   Mostly Cloudy
1:53 PM 26.1 °F 21.9 °F 5.0 °F 41% 30.43 in 10.0 mi East 3.5 mph - N/A   Overcast
2:53 PM 27.0 °F 20.5 °F 7.0 °F 43% 30.43 in 10.0 mi SE 5.8 mph - N/A   Overcast
3:53 PM 27.0 °F 20.5 °F 7.0 °F 43% 30.42 in 10.0 mi SSE 5.8 mph - N/A   Overcast
4:53 PM 27.0 °F 23.0 °F 8.1 °F 45% 30.41 in 10.0 mi ESE 3.5 mph - N/A   Overcast
5:53 PM 27.0 °F 21.6 °F 10.0 °F 49% 30.41 in 10.0 mi ESE 4.6 mph - N/A   Overcast
6:53 PM 27.0 °F 21.6 °F 10.9 °F 51% 30.40 in 10.0 mi ESE 4.6 mph - N/A   Overcast
7:53 PM 27.0 °F 23.0 °F 10.0 °F 49% 30.40 in 10.0 mi East 3.5 mph - N/A   Overcast
8:53 PM 27.0 °F 23.0 °F 10.9 °F 51% 30.39 in 10.0 mi ESE 3.5 mph - N/A   Overcast
9:53 PM 26.1 °F - 12.9 °F 58% 30.39 in 10.0 mi Calm Calm - N/A   Clear
10:53 PM 25.0 °F - 15.1 °F 66% 30.40 in 10.0 mi Calm Calm - N/A   Clear
11:53 PM 24.1 °F 19.7 °F 17.1 °F 75% 30.39 in 10.0 mi NE 3.5 mph - N/A   Clear